RH
100 85 74 67 48 24 15 16 15 17 19 17 18 19 15 13 12 13 12 11 9 9 8 8 7 6 6 6 6 7 8 9 10 15 18 25 30 34 37 37 39 42 45 49 51
76 45 23 16 15 18 21 22 20 19 17 17 16 15 13 12 13 13 14 11 9 8 7 7 6 6 6 7 7 7 7 8 9 12 20 26 32 36 40 45 45 44 45 47 49
32 26 19 20 20 22 20 23 22 20 17 16 15 13 12 14 14 12 12 10 9 8 7 6 6 6 7 8 7 8 7 8 9 10 11 14 18 21 23 24 30 36 45 56 63
25 21 21 22 21 20 20 20 19 18 15 15 13 12 13 16 13 12 11 12 7 7 8 8 7 8 9 9 8 8 11 11 11 11 11 11 12 14 15 16 18 19 19 17 22
24 23 22 24 22 21 20 19 18 21 18 14 13 13 14 15 12 11 13 11 9 11 10 10 11 11 10 10 12 10 13 10 14 14 13 13 15 15 18 22 20 18 20 18 18
25 22 20 22 24 20 22 19 19 19 14 12 13 15 14 15 14 13 12 10 13 13 10 13 15 14 14 13 14 14 20 16 16 19 18 18 17 16 14 14 14 17 16 18 18
25 22 20 21 20 20 22 23 22 19 14 14 14 16 15 14 15 14 11 13 17 12 12 16 16 16 16 14 18 20 19 21 24 25 26 29 30 29 28 31 30 30 26 24 24
23 22 21 21 20 20 27 27 24 18 17 15 16 16 14 14 14 14 16 16 17 15 18 17 19 18 18 16 18 18 22 24 25 27 30 34 36 32 30 27 28 25 24 32 39
26 24 21 26 24 27 28 25 22 21 18 16 16 16 13 14 14 17 18 21 20 20 24 20 23 19 23 25 22 20 22 27 29 29 34 31 29 30 33 43 48 50 57 53 51
25 24 22 33 33 31 24 24 20 21 16 17 16 17 16 16 18 20 20 20 25 25 32 24 24 23 20 24 25 22 25 27 27 26 26 27 30 38 47 41 47 47 54 54 56
31 26 27 35 33 31 24 24 18 20 17 17 18 19 23 19 18 21 28 29 33 36 36 32 24 23 23 21 22 24 24 24 24 24 25 30 37 43 47 58 64 61 55 54 51
32 30 30 37 33 27 24 26 23 20 22 27 27 22 22 22 23 29 34 38 41 41 45 45 26 27 26 21 23 24 23 25 26 24 27 33 39 37 49 57 51 51 59 60 52
49 31 34 42 38 28 27 26 28 24 21 24 29 30 25 30 33 36 40 44 44 43 46 47 33 33 34 29 23 24 24 26 25 27 31 33 36 39 49 46 52 50 63 62 55
48 31 35 46 45 34 44 43 31 30 25 24 31 40 32 40 38 36 51 57 48 53 50 62 54 37 35 30 25 25 26 23 31 29 46 36 33 41 45 45 49 51 55 55 59
45 32 47 43 55 43 68 55 29 29 25 24 31 37 44 36 40 55 64 53 51 56 60 59 63 46 39 38 27 32 30 27 23 22 24 29 32 39 40 41 41 43 43 44 42
37 34 50 52 58 65 93 69 32 28 26 23 34 40 39 33 46 53 89 76 66 69 69 70 78 77 60 59 45 40 31 27 25 28 34 28 39 38 35 37 38 44 49 52 50
34 45 50 57 57 53 68 78 31 30 22 22 32 37 45 38 52 58 88 92 86 74 85 84 92 86 85 80 56 40 45 49 41 30 31 35 36 29 32 38 42 39 44 42 37
39 44 52 59 61 56 72 50 30 32 24 25 29 35 44 40 44 54 76 66 83 70 91 86 100 90 100 82 47 48 55 56 43 29 38 32 30 32 36 45 46 51 50 48 28
55 59 57 66 71 61 58 56 41 33 34 34 32 33 42 42 35 41 42 46 75 87 91 96 90 97 95 84 58 58 52 40 35 33 26 32 34 32 38 44 41 42 39 56 60
79 75 66 68 70 63 59 51 47 40 45 51 40 47 49 42 36 38 37 47 75 78 88 94 92 82 89 92 53 55 41 39 29 37 28 27 36 31 36 42 42 61 54 52 42
98 96 100 98 97 88 78 69 57 56 50 51 52 54 51 46 38 40 43 48 70 82 83 100 94 85 97 84 48 44 39 33 34 34 26 31 30 36 37 47 44 45 40 52 44
99 84 100 100 100 100 100 98 84 65 64 70 82 75 56 48 49 43 48 47 67 88 97 97 100 99 94 78 71 57 40 38 31 28 32 30 29 34 36 50 50 60 49 46 64
97 98 88 87 89 92 91 78 98 98 97 87 85 70 62 62 51 53 53 50 53 79 83 88 99 94 94 90 80 41 25 29 30 35 32 29 33 34 35 47 53 59 55 48 83
100 100 100 89 82 83 97 90 98 100 100 100 87 74 82 77 59 51 56 55 54 60 73 88 100 97 85 89 60 28 27 30 36 41 50 49 39 30 36 50 59 54 52 59 86
100 100 100 100 99 95 89 100 96 100 100 100 100 87 74 75 70 57 52 59 58 65 68 85 100 96 87 86 47 32 37 44 40 54 58 39 34 32 37 48 54 58 52 80 98
100 100 100 100 100 100 100 100 86 96 100 100 100 99 100 96 81 54 54 68 69 66 72 86 100 83 93 88 52 40 48 56 52 52 45 34 34 35 41 54 60 82 56 65 76
100 100 100 100 100 100 100 100 85 99 100 100 98 97 100 100 84 61 53 75 70 65 76 84 91 68 100 94 67 41 51 34 44 44 40 35 32 33 50 49 62 58 72 93 79
Wind_Speed
12 10 10 9 5 4 3 2 1 3 6 7 8 11 14 15 16 19 20 22 21 21 21 25 25 19 21 18 21 22 22 22 21 21 23 23 23 24 26 29 31 34 36 38 41
14 12 10 8 6 3 7 6 5 4 5 7 10 11 13 16 19 20 19 20 22 24 27 27 25 20 21 21 23 21 17 17 17 18 20 22 23 26 27 29 31 34 35 37 39
14 13 10 8 7 11 6 8 6 5 6 8 11 12 14 17 19 19 18 22 24 26 34 34 28 28 25 24 25 22 22 20 17 17 19 22 25 28 30 33 34 36 39 42 44
15 13 11 9 9 6 4 5 6 8 10 10 11 13 14 18 18 20 21 24 25 28 35 39 35 40 27 33 27 30 34 33 30 24 18 18 22 26 28 31 34 37 40 41 46
16 13 13 9 6 4 3 6 8 9 8 7 9 12 14 20 19 19 21 23 24 35 37 38 42 43 35 33 35 28 26 30 34 37 30 27 26 28 31 32 31 34 33 35 41
17 13 12 12 5 2 3 5 9 8 7 7 9 11 14 17 20 21 21 23 31 37 40 44 46 47 47 39 42 39 38 40 38 34 31 26 26 27 30 29 36 38 39 43 48
17 14 12 9 5 2 3 4 8 7 7 9 9 11 16 18 22 22 21 26 32 38 46 46 46 50 43 43 40 40 39 41 42 39 35 40 41 41 41 38 37 38 42 45 51
18 14 11 7 5 4 0 4 7 4 9 9 11 13 18 19 23 24 26 29 34 40 47 48 47 49 46 42 44 41 42 41 37 36 40 43 42 41 42 44 48 48 54 55 61
19 15 9 7 6 5 1 2 4 6 6 8 12 16 21 28 28 28 31 33 36 42 48 48 47 44 45 46 43 39 39 38 39 40 45 43 48 53 55 61 62 63 66 71 76
19 14 9 8 7 6 4 3 4 5 6 9 11 17 21 30 31 33 35 37 39 43 48 48 47 44 40 45 39 39 41 41 42 43 49 53 56 59 64 64 68 71 76 76 77
19 15 11 10 7 6 7 6 4 6 9 11 13 16 21 28 33 37 37 39 40 43 44 47 44 43 43 40 38 40 44 48 49 51 53 59 63 66 70 75 80 81 80 83 86
22 16 12 10 7 7 7 6 3 5 9 13 13 14 20 26 32 37 38 40 41 41 45 46 43 42 40 37 36 39 42 47 49 50 58 59 64 71 75 79 82 86 88 86 89
23 17 13 11 9 7 3 3 1 3 8 8 12 16 18 25 30 35 40 42 41 41 44 45 43 42 42 39 40 38 42 47 51 56 57 62 66 73 76 81 85 92 91 91 97
26 21 15 13 12 9 4 1 5 5 9 12 13 17 18 25 29 35 39 42 43 40 41 44 46 44 44 39 35 42 49 47 53 52 60 66 69 75 79 85 88 94 94 96 103
27 24 18 17 15 12 8 2 4 7 8 12 15 17 20 22 28 34 38 42 43 41 42 42 46 44 44 46 44 48 53 51 52 59 63 69 74 75 81 86 90 97 96 99 109
29 25 20 18 15 10 11 7 5 4 8 13 16 17 21 20 27 32 37 40 43 43 42 43 47 48 48 50 48 49 50 53 59 66 67 71 74 80 88 90 94 101 102 104 108
31 28 25 21 16 12 9 10 7 7 9 12 17 21 22 23 27 31 36 41 42 44 44 45 46 48 53 56 54 49 55 59 62 62 67 75 80 87 90 94 95 100 105 108 108
34 30 26 22 14 12 9 10 9 9 9 14 17 23 22 25 28 31 32 39 42 42 47 49 46 49 53 59 57 57 57 61 66 65 69 76 82 83 90 91 97 103 108 109 114
33 30 27 22 18 16 12 13 12 9 12 16 18 22 26 28 30 31 33 37 42 44 47 51 49 49 53 59 63 59 60 64 65 63 66 76 85 91 95 97 101 103 112 117 121
30 25 24 21 18 16 14 13 14 14 16 18 20 23 28 28 31 34 36 36 42 44 49 52 53 54 57 61 64 62 63 68 69 70 68 78 93 95 100 101 103 110 113 117 123
33 26 24 21 19 17 15 15 16 17 17 20 22 25 29 30 30 33 35 38 41 44 49 53 55 56 59 62 63 61 65 69 71 76 81 85 91 96 102 107 107 110 116 122 130
36 32 28 22 20 19 18 16 16 16 20 24 27 27 28 31 32 35 37 40 41 46 50 53 56 59 61 62 65 66 67 70 75 76 84 88 94 104 107 113 113 117 119 126 138
40 35 33 29 26 24 23 20 19 20 20 24 24 23 27 30 32 37 39 40 42 45 50 53 56 59 62 62 67 63 66 71 76 79 84 94 106 108 113 115 118 122 123 127 141
40 39 35 33 31 28 27 25 22 23 27 25 23 25 28 31 33 37 39 40 44 46 49 53 57 61 64 64 66 62 69 74 79 82 88 96 103 110 116 115 120 120 125 129 141
42 39 36 34 31 29 29 25 24 25 25 26 25 27 28 34 35 38 39 40 45 46 50 53 58 62 65 64 65 65 70 76 78 83 93 95 102 109 114 119 119 125 127 135 143
44 40 38 34 33 31 30 31 31 28 27 26 27 26 30 34 37 38 39 42 45 47 50 53 58 63 64 66 65 66 74 79 80 87 91 95 103 107 115 118 127 128 133 136 145
46 45 40 38 35 33 32 31 30 30 30 26 27 30 33 35 36 37 41 43 45 46 50 54 58 61 63 64 67 68 75 78 84 88 91 96 103 113 117 121 126 130 135 140 154
Wind_Direction
188 152 151 175 182 199 219 238 124 68 34 19 1 358 360 355 347 349 347 346 346 345 343 344 343 341 338 327 324 327 320 313 308 305 299 297 295 290 288 285 283 282 281 280 279
155 163 174 179 165 146 117 105 84 45 6 355 1 9 2 354 355 351 351 353 357 359 360 357 349 343 355 349 347 331 334 331 323 310 300 297 294 290 286 284 284 284 283 283 283
170 177 170 155 156 161 107 56 38 9 360 347 6 12 360 6 12 4 3 9 9 17 14 10 14 4 6 4 1 357 358 2 352 340 319 307 302 298 298 297 294 291 289 287 286
182 175 171 164 171 172 47 28 16 3 350 349 11 1 359 11 4 14 16 12 23 22 18 22 20 25 15 17 21 25 23 19 3 3 353 339 330 326 316 307 301 297 292 292 287
184 178 176 173 172 142 53 13 1 343 347 5 10 352 357 26 21 15 15 15 23 20 17 18 23 24 30 31 30 25 20 20 22 20 16 359 351 344 337 330 322 309 307 299 293
182 184 184 184 166 90 10 7 337 345 5 17 355 356 19 25 18 14 17 25 19 17 18 17 19 22 21 23 24 23 22 20 19 15 7 345 332 325 324 325 315 312 303 298 293
183 187 191 186 189 190 302 332 322 343 21 1 355 1 26 27 15 14 15 15 20 21 19 18 20 22 24 22 18 16 22 19 14 7 3 0 358 348 339 331 321 312 308 298 299
186 188 178 171 191 198 183 305 315 326 2 353 5 26 35 22 25 24 16 17 21 20 16 17 20 20 24 20 19 21 21 17 10 9 8 1 356 348 339 332 332 327 324 328 326
189 179 166 172 192 168 190 282 300 358 349 7 33 43 48 41 30 24 24 20 19 17 16 16 18 21 19 20 21 20 16 13 13 13 7 356 354 356 353 348 342 340 338 335 331
192 183 181 177 166 172 142 99 26 19 9 16 46 44 38 35 32 27 22 22 18 15 13 15 15 15 14 15 14 17 15 11 9 9 7 358 353 350 350 348 346 344 338 334 330
197 191 178 187 190 197 157 86 52 30 34 49 58 35 34 30 31 29 21 17 13 11 11 11 14 15 11 13 21 19 13 8 4 359 358 353 353 351 350 351 349 346 340 336 333
199 191 184 180 189 185 185 97 76 45 57 48 44 27 17 21 23 24 20 18 12 7 6 8 10 10 10 12 13 14 2 355 356 352 352 357 354 353 350 347 346 342 340 336 332
195 192 186 193 204 196 188 123 32 350 353 356 13 14 14 13 17 18 17 15 11 6 5 8 6 4 4 0 0 355 352 353 356 353 354 357 353 349 348 347 344 341 338 332 331
200 202 198 198 208 208 194 252 272 299 333 355 15 11 8 10 15 15 13 8 9 3 3 4 3 2 358 353 352 348 350 355 355 354 353 351 353 346 346 345 344 340 335 331 329
200 201 197 202 207 215 222 276 321 299 322 347 347 4 3 6 12 13 12 9 8 3 2 360 2 1 355 356 351 345 348 348 349 347 349 351 349 346 343 344 342 337 334 333 332
201 199 199 195 194 227 233 246 313 328 330 343 344 349 356 358 2 7 7 5 4 2 358 356 356 358 357 352 344 345 350 349 345 345 346 346 344 346 344 340 336 336 334 333 330
200 200 202 198 210 228 240 248 268 334 323 341 345 345 344 349 355 359 3 1 358 360 358 352 347 347 350 352 348 344 348 348 346 342 341 342 347 343 339 339 338 336 336 335 331
201 204 208 209 211 219 235 255 279 316 328 336 342 343 336 343 346 351 357 357 357 355 355 355 344 345 348 351 351 349 346 343 342 343 346 348 343 342 340 339 337 337 336 335 337
201 204 208 212 222 238 242 260 275 297 316 324 327 334 338 336 340 342 347 354 354 353 352 351 350 345 345 347 349 347 347 344 345 346 348 346 342 341 342 343 340 338 340 343 348
201 202 206 214 224 238 252 260 271 293 307 309 321 331 336 334 342 343 347 350 353 351 350 348 348 345 344 346 348 348 347 346 348 345 346 346 347 347 346 345 344 343 342 343 346
202 201 203 212 226 239 253 267 274 291 300 306 312 319 332 335 340 343 345 347 348 348 346 347 346 345 344 345 348 347 348 348 349 346 344 345 347 350 349 347 344 340 343 346 348
206 206 211 214 221 235 247 269 288 296 304 304 306 314 322 332 336 337 340 344 342 344 345 344 344 344 344 344 347 348 348 346 347 346 346 346 345 347 349 348 347 344 344 347 351
216 216 217 223 228 241 251 266 281 287 304 312 310 313 318 326 332 333 337 341 340 340 342 343 342 342 343 342 345 347 348 347 348 348 348 347 347 345 349 348 347 345 348 348 353
214 218 224 230 234 242 254 269 273 278 287 298 319 321 318 321 328 331 334 337 337 337 339 340 340 340 344 343 345 347 347 347 349 350 347 345 346 350 349 347 346 346 350 350 353
210 217 223 230 240 245 254 257 271 284 287 293 302 322 323 321 325 330 333 334 334 334 337 341 339 338 344 342 345 345 348 349 348 346 344 345 345 348 350 350 349 349 350 354 353
216 219 223 229 236 243 250 256 269 277 284 294 303 313 323 322 323 327 332 333 332 332 338 340 339 339 342 342 344 342 346 345 345 344 343 345 345 349 349 350 350 349 350 352 351
221 222 225 233 241 249 256 264 268 272 279 294 303 309 316 326 322 325 330 331 331 333 337 338 336 338 340 339 338 343 342 344 343 343 343 345 346 351 350 349 348 353 354 355 353